,,Stat5,,Stat1,,Stat2,,Stat3,,Stat4,,Wind1,,Wind1,
time,status,PA1M_AVG,status,PR1M_SUM,status,RH1M_AVG,status,SR1M_AVG,status,TA1M_AVG,status,W1dAve1m,status,W1sAve1m,
2003-08-15, 00:00:00,VALID,917.578,VALID,0,VALID,100,VALID,0,VALID,20.0985,VALID,18,VALID,0.690789,
2003-08-15, 00:01:00,VALID,917.569,VALID,0,VALID,100,VALID,0,VALID,20.098,VALID,16,VALID,0.681743,
2003-08-15, 00:02:00,VALID,917.559,VALID,0,VALID,100,VALID,0,VALID,20.0955,VALID,353,VALID,0.627604,
2003-08-15, 00:03:00,VALID,917.539,VALID,0,VALID,100,VALID,-0.0169808,VALID,20.0403,VALID,326,VALID,0.479968,
2003-08-15, 00:04:00,VALID,917.512,VALID,0,VALID,100,VALID,0,VALID,20.0309,VALID,9,VALID,0.846484,
2003-08-15, 00:05:00,VALID,917.477,VALID,0,VALID,100,VALID,0,VALID,20.0438,VALID,17,VALID,1.16488,
2003-08-15, 00:06:00,VALID,917.464,VALID,0,VALID,100,VALID,0,VALID,20.0659,VALID,14,VALID,0.115625,
2003-08-15, 00:07:00,VALID,917.445,VALID,0,VALID,100,VALID,0.0169808,VALID,20.0562,VALID,14,VALID,0,
2003-08-15, 00:08:00,VALID,917.426,VALID,0,VALID,100,VALID,-0.0339617,VALID,20.0478,VALID,283,VALID,0.161659,
2003-08-15, 00:09:00,VALID,917.417,VALID,0,VALID,100,VALID,-0.0509425,VALID,20.0376,VALID,260,VALID,0,
2003-08-15, 00:10:00,VALID,917.394,VALID,0,VALID,100,VALID,0.0169808,VALID,20.0334,VALID,260,VALID,0,
2003-08-15, 00:11:00,VALID,917.389,VALID,0,VALID,100,VALID,0.0509425,VALID,20.0296,VALID,260,VALID,0,
2003-08-15, 00:12:00,VALID,917.384,VALID,0,VALID,100,VALID,0.0169808,VALID,20.0326,VALID,260,VALID,0,
2003-08-15, 00:13:00,VALID,917.371,VALID,0,VALID,100,VALID,0.0679233,VALID,20.0331,VALID,260,VALID,0.00200321,
2003-08-15, 00:14:00,VALID,917.374,VALID,0,VALID,100,VALID,0.0679233,VALID,20.0361,VALID,260,VALID,0.031684,
2003-08-15, 00:15:00,VALID,917.377,VALID,0,VALID,100,VALID,0.0169808,VALID,20.0421,VALID,9,VALID,0.24197,
2003-08-15, 00:16:00,VALID,917.379,VALID,0,VALID,100,VALID,0.0169808,VALID,20.0493,VALID,29,VALID,0.142228,
2003-08-15, 00:17:00,VALID,917.372,VALID,0,VALID,100,VALID,0.0339617,VALID,20.0485,VALID,29,VALID,0.00992399,
2003-08-15, 00:18:00,VALID,917.354,VALID,0,VALID,100,VALID,0.0679233,VALID,20.059,VALID,29,VALID,0.202524,
2003-08-15, 00:19:00,VALID,917.355,VALID,0,VALID,100,VALID,0.0679233,VALID,20.0647,VALID,29,VALID,0.202097,
2003-08-15, 00:20:00,VALID,917.321,VALID,0,VALID,100,VALID,0.0679233,VALID,20.0741,VALID,29,VALID,0.0323933,
2003-08-15, 00:21:00,VALID,917.302,VALID,0,VALID,100,VALID,0.0679233,VALID,20.0811,VALID,27,VALID,0.309295,
2003-08-15, 00:22:00,VALID,917.288,VALID,0,VALID,100,VALID,0.0169808,VALID,20.0778,VALID,16,VALID,0.609164,
2003-08-15, 00:23:00,VALID,917.258,VALID,0,VALID,100,VALID,0.0849042,VALID,20.0873,VALID,10,VALID,0.483422,
2003-08-15, 00:24:00,VALID,917.243,VALID,0,VALID,100,VALID,0.0169808,VALID,20.0738,VALID,10,VALID,0.555689,
2003-08-15, 00:25:00,VALID,917.216,VALID,0,VALID,100,VALID,0,VALID,20.0856,VALID,19,VALID,0.59016,
2003-08-15, 00:26:00,VALID,917.196,VALID,0,VALID,100,VALID,-0.0509425,VALID,20.0925,VALID,20,VALID,0.204861,
2003-08-15, 00:27:00,VALID,917.176,VALID,0,VALID,100,VALID,-0.0679233,VALID,20.0694,VALID,20,VALID,0.00841346,
2003-08-15, 00:28:00,VALID,917.153,VALID,0,VALID,100,VALID,-0.0679233,VALID,20.093,VALID,20,VALID,0,
2003-08-15, 00:29:00,VALID,917.143,VALID,0,VALID,100,VALID,-0.0849042,VALID,20.0635,VALID,20,VALID,0.000976563,
2003-08-15, 00:30:00,VALID,917.132,VALID,0,VALID,100,VALID,-0.0509425,VALID,20.0503,VALID,20,VALID,0.0244655,
2003-08-15, 00:31:00,VALID,917.102,VALID,0,VALID,100,VALID,-0.0339617,VALID,20.0632,VALID,20,VALID,0.0015191,
2003-08-15, 00:32:00,VALID,917.078,VALID,0,VALID,100,VALID,-0.0509425,VALID,20.0465,VALID,20,VALID,0,
2003-08-15, 00:33:00,VALID,917.06,VALID,0,VALID,100,VALID,-0.0849042,VALID,20.0801,VALID,20,VALID,0,
2003-08-15, 00:34:00,VALID,917.042,VALID,0,VALID,100,VALID,-0.0339617,VALID,20.0657,VALID,20,VALID,0,
2003-08-15, 00:35:00,VALID,917.03,VALID,0,VALID,100,VALID,-0.0339617,VALID,20.0694,VALID,20,VALID,0,
2003-08-15, 00:36:00,VALID,917.004,VALID,0,VALID,100,VALID,-0.0849042,VALID,20.0635,VALID,20,VALID,0,
2003-08-15, 00:37:00,VALID,916.994,VALID,0,VALID,100,VALID,-0.0509425,VALID,20.0478,VALID,20,VALID,0,
2003-08-15, 00:38:00,VALID,916.971,VALID,0,VALID,100,VALID,-0.0679233,VALID,20.0277,VALID,20,VALID,0,
2003-08-15, 00:39:00,VALID,916.952,VALID,0,VALID,100,VALID,-0.0509425,VALID,20.0309,VALID,20,VALID,0,
2003-08-15, 00:40:00,VALID,916.943,VALID,0,VALID,100,VALID,0.0509425,VALID,20.0301,VALID,20,VALID,0,
2003-08-15, 00:41:00,VALID,916.917,VALID,0,VALID,100,VALID,0.0509425,VALID,20.0068,VALID,20,VALID,0,
2003-08-15, 00:42:00,VALID,916.906,VALID,0,VALID,100,VALID,0.0849042,VALID,20.0003,VALID,20,VALID,0,
2003-08-15, 00:43:00,VALID,916.887,VALID,0,VALID,100,VALID,0.0339617,VALID,19.9877,VALID,20,VALID,0,
2003-08-15, 00:44:00,VALID,916.861,VALID,0,VALID,100,VALID,0.0339617,VALID,20.0006,VALID,20,VALID,0,
2003-08-15, 00:45:00,VALID,916.844,VALID,0,VALID,100,VALID,0.0509425,VALID,20.0063,VALID,20,VALID,0,
2003-08-15, 00:46:00,VALID,916.842,VALID,0,VALID,100,VALID,0.0169808,VALID,20.0038,VALID,20,VALID,0.146034,
2003-08-15, 00:47:00,VALID,916.826,VALID,0,VALID,100,VALID,0.0339617,VALID,19.9904,VALID,15,VALID,0.198828,
2003-08-15, 00:48:00,VALID,916.818,VALID,0,VALID,100,VALID,0.0509425,VALID,19.9944,VALID,251,VALID,0.41324,
2003-08-15, 00:49:00,VALID,916.803,VALID,0,VALID,100,VALID,0,VALID,19.9775,VALID,232,VALID,0.117188,
2003-08-15, 00:50:00,VALID,916.798,VALID,0,VALID,100,VALID,0.0169808,VALID,19.9978,VALID,205,VALID,0.283573,
2003-08-15, 00:51:00,VALID,916.791,VALID,0,VALID,100,VALID,0.0339617,VALID,20.0008,VALID,180,VALID,0.297656,
2003-08-15, 00:52:00,VALID,916.787,VALID,0,VALID,100,VALID,0.0679233,VALID,20.0038,VALID,177,VALID,0.307509,
2003-08-15, 00:53:00,VALID,916.785,VALID,0,VALID,100,VALID,0,VALID,20.0073,VALID,174,VALID,0.101351,
2003-08-15, 00:54:00,VALID,916.775,VALID,0,VALID,100,VALID,0.0339617,VALID,20.0108,VALID,163,VALID,0.285979,
2003-08-15, 00:55:00,VALID,916.767,VALID,0,VALID,100,VALID,0.0339617,VALID,19.9971,VALID,151,VALID,0.346591,
2003-08-15, 00:56:00,VALID,916.76,VALID,0,VALID,100,VALID,0.0169808,VALID,19.9973,VALID,150,VALID,0.395354,
2003-08-15, 00:57:00,VALID,916.754,VALID,0,VALID,100,VALID,0.0169808,VALID,19.9944,VALID,149,VALID,0.29043,
2003-08-15, 00:58:00,VALID,916.753,VALID,0,VALID,100,VALID,0.0509425,VALID,20.0207,VALID,149,VALID,0.374589,
2003-08-15, 00:59:00,VALID,916.763,VALID,0,VALID,100,VALID,0,VALID,20.0006,VALID,149,VALID,0.454359,
2003-08-15, 01:00:00,VALID,916.749,VALID,0,VALID,100,VALID,0.0169808,VALID,19.9909,VALID,149,VALID,0.423314,
2003-08-15, 01:01:00,VALID,916.749,VALID,0,VALID,100,VALID,0,VALID,19.9911,VALID,148,VALID,0.584135,
2003-08-15, 01:02:00,VALID,916.753,VALID,0,VALID,100,VALID,0.0169808,VALID,19.9777,VALID,145,VALID,0.596495,
2003-08-15, 01:03:00,VALID,916.736,VALID,0,VALID,100,VALID,0,VALID,19.9909,VALID,143,VALID,0.503906,
2003-08-15, 01:04:00,VALID,916.732,VALID,0,VALID,100,VALID,0.0339617,VALID,19.9842,VALID,136,VALID,0.559375,
2003-08-15, 01:05:00,VALID,916.724,VALID,0,VALID,100,VALID,0,VALID,19.9747,VALID,137,VALID,0.520182,
2003-08-15, 01:06:00,VALID,916.714,VALID,0,VALID,100,VALID,0,VALID,19.9814,VALID,142,VALID,0.513091,
2003-08-15, 01:07:00,VALID,916.701,VALID,0,VALID,100,VALID,0,VALID,19.979,VALID,146,VALID,0.469161,
2003-08-15, 01:08:00,VALID,916.694,VALID,0,VALID,100,VALID,0.0169808,VALID,19.975,VALID,169,VALID,0.239955,
2003-08-15, 01:09:00,VALID,916.682,VALID,0,VALID,100,VALID,0,VALID,19.9591,VALID,174,VALID,0.302576,
2003-08-15, 01:10:00,VALID,916.671,VALID,0,VALID,100,VALID,-0.0339617,VALID,19.9499,VALID,158,VALID,0.308799,
2003-08-15, 01:11:00,VALID,916.664,VALID,0,VALID,100,VALID,-0.0339617,VALID,19.9402,VALID,151,VALID,0.33817,
2003-08-15, 01:12:00,VALID,916.662,VALID,0,VALID,100,VALID,-0.0509425,VALID,19.9412,VALID,152,VALID,0.255609,
2003-08-15, 01:13:00,VALID,916.662,VALID,0,VALID,100,VALID,-0.101885,VALID,19.9445,VALID,152,VALID,0.149089,
2003-08-15, 01:14:00,VALID,916.671,VALID,0,VALID,100,VALID,-0.0679233,VALID,19.9415,VALID,146,VALID,0.263363,
2003-08-15, 01:15:00,VALID,916.678,VALID,0,VALID,100,VALID,-0.0679233,VALID,19.9377,VALID,115,VALID,0.374589,
2003-08-15, 01:16:00,VALID,916.68,VALID,0,VALID,100,VALID,-0.0849042,VALID,19.9477,VALID,155,VALID,0.190245,
2003-08-15, 01:17:00,VALID,916.685,VALID,0,VALID,100,VALID,-0.0339617,VALID,19.931,VALID,127,VALID,0.510547,
2003-08-15, 01:18:00,VALID,916.681,VALID,0,VALID,100,VALID,-0.0509425,VALID,19.928,VALID,142,VALID,0.419071,
2003-08-15, 01:19:00,VALID,916.679,VALID,0,VALID,100,VALID,-0.0679233,VALID,19.9348,VALID,136,VALID,0.0512821,
2003-08-15, 01:20:00,VALID,916.684,VALID,0,VALID,100,VALID,-0.0849042,VALID,19.9211,VALID,135,VALID,0.319046,
2003-08-15, 01:21:00,VALID,916.683,VALID,0,VALID,100,VALID,-0.0679233,VALID,19.9343,VALID,110,VALID,0.503005,
2003-08-15, 01:22:00,VALID,916.665,VALID,0,VALID,100,VALID,-0.0679233,VALID,19.931,VALID,89,VALID,0.606847,
2003-08-15, 01:23:00,VALID,916.668,VALID,0,VALID,100,VALID,-0.0679233,VALID,19.9246,VALID,70,VALID,0.587695,
2003-08-15, 01:24:00,VALID,916.659,VALID,0,VALID,100,VALID,-0.0679233,VALID,19.9315,VALID,71,VALID,0.762747,
2003-08-15, 01:25:00,VALID,916.66,VALID,0,VALID,100,VALID,-0.0849042,VALID,19.9251,VALID,48,VALID,0.951122,
2003-08-15, 01:26:00,VALID,916.655,VALID,0,VALID,100,VALID,-0.0509425,VALID,19.9253,VALID,41,VALID,0.90625,
2003-08-15, 01:27:00,VALID,916.658,VALID,0,VALID,100,VALID,-0.0509425,VALID,19.9122,VALID,62,VALID,0.755078,
2003-08-15, 01:28:00,VALID,916.66,VALID,0,VALID,100,VALID,-0.101885,VALID,19.9057,VALID,52,VALID,0.492969,
2003-08-15, 01:29:00,VALID,916.651,VALID,0,VALID,100,VALID,-0.0339617,VALID,19.8995,VALID,53,VALID,0.518229,
2003-08-15, 01:30:00,VALID,916.636,VALID,0,VALID,100,VALID,-0.0849042,VALID,19.8831,VALID,44,VALID,0.565789,
2003-08-15, 01:31:00,VALID,916.622,VALID,0,VALID,100,VALID,-0.0679233,VALID,19.8731,VALID,44,VALID,0.559295,
2003-08-15, 01:32:00,VALID,916.615,VALID,0,VALID,100,VALID,-0.0509425,VALID,19.8764,VALID,48,VALID,0.605569,
2003-08-15, 01:33:00,VALID,916.594,VALID,0,VALID,100,VALID,-0.0509425,VALID,19.8736,VALID,59,VALID,0.801309,
2003-08-15, 01:34:00,VALID,916.568,VALID,0,VALID,100,VALID,-0.0509425,VALID,19.8567,VALID,67,VALID,0.84395,
2003-08-15, 01:35:00,VALID,916.563,VALID,0,VALID,100,VALID,-0.0509425,VALID,19.8441,VALID,66,VALID,0.799696,
2003-08-15, 01:36:00,VALID,916.546,VALID,0,VALID,100,VALID,-0.0679233,VALID,19.8441,VALID,61,VALID,0.669271,
2003-08-15, 01:37:00,VALID,916.529,VALID,0,VALID,100,VALID,-0.0849042,VALID,19.8508,VALID,73,VALID,0.6252,
2003-08-15, 01:38:00,VALID,916.52,VALID,0,VALID,100,VALID,-0.101885,VALID,19.8277,VALID,52,VALID,0.723606,
2003-08-15, 01:39:00,VALID,916.499,VALID,0,VALID,100,VALID,-0.0509425,VALID,19.8247,VALID,53,VALID,0.682292,
2003-08-15, 01:40:00,VALID,916.484,VALID,0,VALID,100,VALID,-0.0849042,VALID,19.8312,VALID,60,VALID,0.753906,
2003-08-15, 01:41:00,VALID,916.461,VALID,0,VALID,100,VALID,-0.0679233,VALID,19.8376,VALID,66,VALID,0.790015,
2003-08-15, 01:42:00,VALID,916.444,VALID,0,VALID,100,VALID,-0.0509425,VALID,19.8244,VALID,49,VALID,0.631611,
2003-08-15, 01:43:00,VALID,916.436,VALID,0,VALID,100,VALID,-0.0339617,VALID,19.8344,VALID,69,VALID,0.646115,
2003-08-15, 01:44:00,VALID,916.422,VALID,0,VALID,100,VALID,-0.0679233,VALID,19.8282,VALID,72,VALID,0.78125,
2003-08-15, 01:45:00,VALID,916.419,VALID,0,VALID,100,VALID,-0.0679233,VALID,19.8212,VALID,72,VALID,0.66246,
2003-08-15, 01:46:00,VALID,916.414,VALID,0,VALID,100,VALID,-0.0339617,VALID,19.8083,VALID,54,VALID,0.673564,
2003-08-15, 01:47:00,VALID,916.421,VALID,0,VALID,100,VALID,-0.0339617,VALID,19.8182,VALID,36,VALID,0.611545,
2003-08-15, 01:48:00,VALID,916.422,VALID,0,VALID,100,VALID,0,VALID,19.8279,VALID,49,VALID,0.554888,
2003-08-15, 01:49:00,VALID,916.417,VALID,0,VALID,100,VALID,-0.0169808,VALID,19.8346,VALID,45,VALID,0.38511,
2003-08-15, 01:50:00,VALID,916.423,VALID,0,VALID,100,VALID,-0.0339617,VALID,19.8277,VALID,29,VALID,0.436328,
2003-08-15, 01:51:00,VALID,916.407,VALID,0,VALID,100,VALID,-0.0509425,VALID,19.854,VALID,15,VALID,0.479235,
2003-08-15, 01:52:00,VALID,916.406,VALID,0,VALID,100,VALID,-0.0169808,VALID,19.8433,VALID,15,VALID,0.224826,
2003-08-15, 01:53:00,VALID,916.416,VALID,0,VALID,100,VALID,-0.0509425,VALID,19.8341,VALID,15,VALID,0.1875,
2003-08-15, 01:54:00,VALID,916.406,VALID,0,VALID,100,VALID,-0.0339617,VALID,19.818,VALID,15,VALID,0.0263672,
2003-08-15, 01:55:00,VALID,916.397,VALID,0,VALID,100,VALID,-0.0679233,VALID,19.8217,VALID,22,VALID,0.0962171,
2003-08-15, 01:56:00,VALID,916.401,VALID,0,VALID,100,VALID,-0.0849042,VALID,19.815,VALID,24,VALID,0.127467,
2003-08-15, 01:57:00,VALID,916.394,VALID,0,VALID,100,VALID,-0.0339617,VALID,19.8185,VALID,24,VALID,0.0974609,
2003-08-15, 01:58:00,VALID,916.378,VALID,0,VALID,100,VALID,-0.0849042,VALID,19.8153,VALID,24,VALID,0.104167,
2003-08-15, 01:59:00,VALID,916.367,VALID,0,VALID,100,VALID,-0.0849042,VALID,19.8083,VALID,24,VALID,0,
2003-08-15, 02:00:00,VALID,916.361,VALID,0,VALID,100,VALID,-0.0339617,VALID,19.8155,VALID,24,VALID,0.0412326,
2003-08-15, 02:01:00,VALID,916.34,VALID,0,VALID,100,VALID,-0.0679233,VALID,19.8056,VALID,24,VALID,0.178285,
2003-08-15, 02:02:00,VALID,916.337,VALID,0,VALID,100,VALID,-0.0679233,VALID,19.8085,VALID,52,VALID,0.306588,
2003-08-15, 02:03:00,VALID,916.332,VALID,0,VALID,100,VALID,-0.0169808,VALID,19.8215,VALID,100,VALID,0.430954,
2003-08-15, 02:04:00,VALID,916.323,VALID,0,VALID,100,VALID,-0.0509425,VALID,19.8215,VALID,104,VALID,0.533156,
2003-08-15, 02:05:00,VALID,916.31,VALID,0,VALID,100,VALID,-0.0849042,VALID,19.8185,VALID,100,VALID,0.521537,
2003-08-15, 02:06:00,VALID,916.297,VALID,0,VALID,100,VALID,-0.101885,VALID,19.8118,VALID,93,VALID,0.289844,
2003-08-15, 02:07:00,VALID,916.29,VALID,0,VALID,100,VALID,-0.0679233,VALID,19.8287,VALID,93,VALID,0.274239,
2003-08-15, 02:08:00,VALID,916.272,VALID,0,VALID,100,VALID,-0.0849042,VALID,19.8254,VALID,93,VALID,0.15918,
2003-08-15, 02:09:00,VALID,916.257,VALID,0,VALID,100,VALID,-0.0679233,VALID,19.8408,VALID,93,VALID,0.0563322,
2003-08-15, 02:10:00,VALID,916.234,VALID,0,VALID,100,VALID,-0.0849042,VALID,19.8548,VALID,93,VALID,0.156456,
2003-08-15, 02:11:00,VALID,916.213,VALID,0,VALID,100,VALID,-0.0509425,VALID,19.8508,VALID,93,VALID,0.00929054,
2003-08-15, 02:12:00,VALID,916.191,VALID,0,VALID,100,VALID,-0.0169808,VALID,19.8505,VALID,94,VALID,0.300781,
2003-08-15, 02:13:00,VALID,916.179,VALID,0,VALID,100,VALID,-0.0509425,VALID,19.8446,VALID,94,VALID,0.56901,
2003-08-15, 02:14:00,VALID,916.146,VALID,0,VALID,100,VALID,-0.0509425,VALID,19.8376,VALID,92,VALID,0.425042,
2003-08-15, 02:15:00,VALID,916.127,VALID,0,VALID,100,VALID,-0.0339617,VALID,19.8416,VALID,92,VALID,0.453947,
2003-08-15, 02:16:00,VALID,916.1,VALID,0,VALID,100,VALID,-0.0339617,VALID,19.8349,VALID,87,VALID,0.459991,
2003-08-15, 02:17:00,VALID,916.074,VALID,0,VALID,100,VALID,-0.0679233,VALID,19.8411,VALID,77,VALID,0.822985,
2003-08-15, 02:18:00,VALID,916.062,VALID,0,VALID,100,VALID,-0.0169808,VALID,19.8381,VALID,72,VALID,0.725586,
2003-08-15, 02:19:00,VALID,916.048,VALID,0,VALID,100,VALID,-0.0169808,VALID,19.8312,VALID,73,VALID,0.465461,
2003-08-15, 02:20:00,VALID,916.03,VALID,0,VALID,100,VALID,-0.0169808,VALID,19.8247,VALID,74,VALID,0.566201,
2003-08-15, 02:21:00,VALID,916.008,VALID,0,VALID,100,VALID,-0.0169808,VALID,19.818,VALID,68,VALID,0.647821,
2003-08-15, 02:22:00,VALID,915.985,VALID,0,VALID,100,VALID,-0.0169808,VALID,19.8148,VALID,64,VALID,0.669071,
2003-08-15, 02:23:00,VALID,915.969,VALID,0,VALID,100,VALID,-0.0169808,VALID,19.812,VALID,67,VALID,0.638514,
2003-08-15, 02:24:00,VALID,915.954,VALID,0,VALID,100,VALID,-0.0509425,VALID,19.7924,VALID,70,VALID,0.439762,
2003-08-15, 02:25:00,VALID,915.934,VALID,0,VALID,100,VALID,0,VALID,19.7989,VALID,70,VALID,0.379492,
2003-08-15, 02:26:00,VALID,915.921,VALID,0,VALID,100,VALID,-0.0679233,VALID,19.7862,VALID,71,VALID,0.531033,
2003-08-15, 02:27:00,VALID,915.902,VALID,0,VALID,100,VALID,-0.0169808,VALID,19.773,VALID,84,VALID,0.409628,
2003-08-15, 02:28:00,VALID,915.873,VALID,0,VALID,100,VALID,-0.0339617,VALID,19.7599,VALID,84,VALID,0.238898,
2003-08-15, 02:29:00,VALID,915.855,VALID,0,VALID,100,VALID,-0.0169808,VALID,19.7566,VALID,84,VALID,0.220089,
2003-08-15, 02:30:00,VALID,915.832,VALID,0,VALID,100,VALID,-0.0509425,VALID,19.7596,VALID,109,VALID,0.414063,
2003-08-15, 02:31:00,VALID,915.814,VALID,0,VALID,100,VALID,-0.0169808,VALID,19.7698,VALID,141,VALID,0.421258,
2003-08-15, 02:32:00,VALID,915.786,VALID,0,VALID,100,VALID,-0.0509425,VALID,19.77,VALID,146,VALID,0.627009,
2003-08-15, 02:33:00,VALID,915.761,VALID,0,VALID,100,VALID,-0.0169808,VALID,19.7797,VALID,142,VALID,0.546875,
2003-08-15, 02:34:00,VALID,915.723,VALID,0,VALID,100,VALID,-0.0339617,VALID,19.7698,VALID,136,VALID,0.532335,
2003-08-15, 02:35:00,VALID,915.7,VALID,0,VALID,100,VALID,0,VALID,19.7797,VALID,128,VALID,0.467928,
2003-08-15, 02:36:00,VALID,915.686,VALID,0,VALID,100,VALID,-0.0339617,VALID,19.7765,VALID,102,VALID,0.69634,
2003-08-15, 02:37:00,VALID,915.654,VALID,0,VALID,100,VALID,-0.0339617,VALID,19.7571,VALID,92,VALID,0.690456,
2003-08-15, 02:38:00,VALID,915.633,VALID,0,VALID,100,VALID,-0.0339617,VALID,19.7603,VALID,94,VALID,0.578906,
2003-08-15, 02:39:00,VALID,915.621,VALID,0,VALID,100,VALID,-0.0509425,VALID,19.7671,VALID,100,VALID,0.635216,
2003-08-15, 02:40:00,VALID,915.614,VALID,0.2,VALID,100,VALID,-0.0339617,VALID,19.7566,VALID,101,VALID,0.430689,
2003-08-15, 02:41:00,VALID,915.603,VALID,0,VALID,100,VALID,-0.0509425,VALID,19.7541,VALID,101,VALID,0.191934,
2003-08-15, 02:42:00,VALID,915.566,VALID,0,VALID,100,VALID,-0.0339617,VALID,19.7472,VALID,107,VALID,0.340545,
2003-08-15, 02:43:00,VALID,915.555,VALID,0,VALID,100,VALID,-0.0339617,VALID,19.7638,VALID,115,VALID,0.522059,
2003-08-15, 02:44:00,VALID,915.543,VALID,0,VALID,100,VALID,0,VALID,19.7604,VALID,115,VALID,0.490625,
2003-08-15, 02:45:00,VALID,915.53,VALID,0,VALID,100,VALID,-0.0339617,VALID,19.7569,VALID,115,VALID,0.304688,
2003-08-15, 02:46:00,VALID,915.516,VALID,0,VALID,100,VALID,-0.0169808,VALID,19.7509,VALID,115,VALID,0.106571,
2003-08-15, 02:47:00,VALID,915.511,VALID,0,VALID,100,VALID,-0.0509425,VALID,19.7507,VALID,115,VALID,0.128084,
2003-08-15, 02:48:00,VALID,915.496,VALID,0,VALID,100,VALID,-0.0679233,VALID,19.7606,VALID,130,VALID,0.316016,
2003-08-15, 02:49:00,VALID,915.483,VALID,0,VALID,100,VALID,-0.0339617,VALID,19.7604,VALID,141,VALID,0.501562,
2003-08-15, 02:50:00,VALID,915.48,VALID,0,VALID,100,VALID,-0.0169808,VALID,19.7539,VALID,138,VALID,0.457933,
2003-08-15, 02:51:00,VALID,915.468,VALID,0,VALID,100,VALID,-0.0169808,VALID,19.744,VALID,137,VALID,0.414885,
2003-08-15, 02:52:00,VALID,915.447,VALID,0,VALID,100,VALID,-0.0509425,VALID,19.7472,VALID,128,VALID,0.28125,
2003-08-15, 02:53:00,VALID,915.433,VALID,0,VALID,100,VALID,-0.0169808,VALID,19.7442,VALID,114,VALID,0.322716,
2003-08-15, 02:54:00,VALID,915.418,VALID,0,VALID,100,VALID,-0.0339617,VALID,19.7345,VALID,114,VALID,0.38598,
2003-08-15, 02:55:00,VALID,915.396,VALID,0,VALID,100,VALID,0.0679233,VALID,19.7174,VALID,107,VALID,0.371795,
2003-08-15, 02:56:00,VALID,915.371,VALID,0,VALID,100,VALID,0.0509425,VALID,19.7171,VALID,109,VALID,0.559245,
2003-08-15, 02:57:00,VALID,915.361,VALID,0.2,VALID,100,VALID,0.0679233,VALID,19.7005,VALID,123,VALID,0.383681,
2003-08-15, 02:58:00,VALID,915.35,VALID,0,VALID,100,VALID,0.0509425,VALID,19.694,VALID,123,VALID,0.130409,
2003-08-15, 02:59:00,VALID,915.338,VALID,0,VALID,100,VALID,0.0679233,VALID,19.6945,VALID,125,VALID,0.287373,
2003-08-15, 03:00:00,VALID,915.339,VALID,0,VALID,100,VALID,0.101885,VALID,19.7012,VALID,125,VALID,0.577925,
2003-08-15, 03:01:00,VALID,915.327,VALID,0,VALID,100,VALID,0.0509425,VALID,19.7112,VALID,125,VALID,0.623561,
2003-08-15, 03:02:00,VALID,915.318,VALID,0,VALID,100,VALID,0.0509425,VALID,19.7042,VALID,119,VALID,0.42359,
2003-08-15, 03:03:00,VALID,915.315,VALID,0,VALID,100,VALID,0.0509425,VALID,19.6876,VALID,130,VALID,0.324119,
2003-08-15, 03:04:00,VALID,915.305,VALID,0,VALID,100,VALID,0.0509425,VALID,19.6943,VALID,136,VALID,0.348606,
2003-08-15, 03:05:00,VALID,915.285,VALID,0,VALID,100,VALID,0.0679233,VALID,19.691,VALID,136,VALID,0.0268674,
2003-08-15, 03:06:00,VALID,915.288,VALID,0,VALID,100,VALID,0.0169808,VALID,19.701,VALID,110,VALID,0.156651,
2003-08-15, 03:07:00,VALID,915.275,VALID,0,VALID,100,VALID,0.0849042,VALID,19.6843,VALID,105,VALID,0.0986064,
2003-08-15, 03:08:00,VALID,915.274,VALID,0.2,VALID,100,VALID,0.0339617,VALID,19.6779,VALID,103,VALID,0.184245,
2003-08-15, 03:09:00,VALID,915.256,VALID,0,VALID,100,VALID,0.0339617,VALID,19.6751,VALID,92,VALID,0.332732,
2003-08-15, 03:10:00,VALID,915.243,VALID,0,VALID,100,VALID,0,VALID,19.6823,VALID,89,VALID,0.346737,
2003-08-15, 03:11:00,VALID,915.24,VALID,0,VALID,100,VALID,-0.0509425,VALID,19.6794,VALID,86,VALID,0.178711,
2003-08-15, 03:12:00,VALID,915.235,VALID,0,VALID,100,VALID,0,VALID,19.6856,VALID,86,VALID,0.167558,
2003-08-15, 03:13:00,VALID,915.237,VALID,0,VALID,100,VALID,0,VALID,19.6853,VALID,86,VALID,0.141927,
2003-08-15, 03:14:00,VALID,915.229,VALID,0,VALID,100,VALID,-0.0339617,VALID,19.6893,VALID,86,VALID,0.0536595,
2003-08-15, 03:15:00,VALID,915.232,VALID,0,VALID,100,VALID,-0.0339617,VALID,19.6637,VALID,86,VALID,0,
2003-08-15, 03:16:00,VALID,915.233,VALID,0,VALID,100,VALID,-0.0339617,VALID,19.664,VALID,86,VALID,0.0933388,
2003-08-15, 03:17:00,VALID,915.224,VALID,0,VALID,100,VALID,-0.0169808,VALID,19.6505,VALID,92,VALID,0.290913,
2003-08-15, 03:18:00,VALID,915.223,VALID,0,VALID,100,VALID,-0.0339617,VALID,19.6436,VALID,138,VALID,0.538477,
2003-08-15, 03:19:00,VALID,915.209,VALID,0,VALID,100,VALID,0,VALID,19.6468,VALID,143,VALID,0.529647,
2003-08-15, 03:20:00,VALID,915.209,VALID,0.2,VALID,100,VALID,0,VALID,19.6466,VALID,142,VALID,0.269637,
2003-08-15, 03:21:00,VALID,915.206,VALID,0,VALID,100,VALID,-0.0339617,VALID,19.6441,VALID,128,VALID,0.429036,
2003-08-15, 03:22:00,VALID,915.204,VALID,0,VALID,100,VALID,-0.0169808,VALID,19.6374,VALID,164,VALID,0.450921,
2003-08-15, 03:23:00,VALID,915.215,VALID,0,VALID,100,VALID,0,VALID,19.6341,VALID,167,VALID,0.234586,
2003-08-15, 03:24:00,VALID,915.228,VALID,0,VALID,100,VALID,0,VALID,19.6374,VALID,128,VALID,0.190878,
2003-08-15, 03:25:00,VALID,915.227,VALID,0,VALID,100,VALID,0,VALID,19.6339,VALID,115,VALID,0,
2003-08-15, 03:26:00,VALID,915.236,VALID,0,VALID,100,VALID,-0.0339617,VALID,19.6314,VALID,115,VALID,0.0538429,
2003-08-15, 03:27:00,VALID,915.25,VALID,0.2,VALID,100,VALID,-0.0339617,VALID,19.6217,VALID,115,VALID,0.0443359,
2003-08-15, 03:28:00,VALID,915.251,VALID,0,VALID,100,VALID,-0.0339617,VALID,19.6083,VALID,115,VALID,0,
2003-08-15, 03:29:00,VALID,915.258,VALID,0,VALID,100,VALID,-0.0169808,VALID,19.6284,VALID,115,VALID,0,
2003-08-15, 03:30:00,VALID,915.264,VALID,0,VALID,100,VALID,-0.0169808,VALID,19.6086,VALID,115,VALID,0,
2003-08-15, 03:31:00,VALID,915.266,VALID,0,VALID,100,VALID,-0.0509425,VALID,19.6021,VALID,115,VALID,0,
2003-08-15, 03:32:00,VALID,915.26,VALID,0,VALID,100,VALID,-0.0679233,VALID,19.5989,VALID,115,VALID,0,
2003-08-15, 03:33:00,VALID,915.268,VALID,0,VALID,100,VALID,-0.0169808,VALID,19.6021,VALID,115,VALID,0,
2003-08-15, 03:34:00,VALID,915.281,VALID,0.2,VALID,100,VALID,-0.0169808,VALID,19.5984,VALID,115,VALID,0,
2003-08-15, 03:35:00,VALID,915.294,VALID,0,VALID,100,VALID,-0.0339617,VALID,19.6021,VALID,115,VALID,0,
2003-08-15, 03:36:00,VALID,915.305,VALID,0,VALID,100,VALID,-0.0339617,VALID,19.6115,VALID,115,VALID,0,
2003-08-15, 03:37:00,VALID,915.335,VALID,0,VALID,100,VALID,0,VALID,19.6153,VALID,115,VALID,0,
2003-08-15, 03:38:00,VALID,915.34,VALID,0,VALID,100,VALID,-0.0509425,VALID,19.6056,VALID,115,VALID,0,
2003-08-15, 03:39:00,VALID,915.347,VALID,0,VALID,100,VALID,0,VALID,19.6247,VALID,115,VALID,0,
2003-08-15, 03:40:00,VALID,915.359,VALID,0,VALID,100,VALID,-0.0339617,VALID,19.6153,VALID,115,VALID,0,
2003-08-15, 03:41:00,VALID,915.361,VALID,0,VALID,100,VALID,0,VALID,19.6185,VALID,115,VALID,0.0273438,
2003-08-15, 03:42:00,VALID,915.365,VALID,0,VALID,100,VALID,-0.0169808,VALID,19.6113,VALID,131,VALID,0.232113,